SWA3195 KSAN-KRNO

Flight info

Callsign SWA3195
Flight time 1h 14m
Altitude 40000
Route PADRZ2 EHF SHERF DNGLE1
Aircraft B38M/M-SADE2E3GHIJ4J7P2RWZ/LB1D1

Departure

Time 2026-05-07 00:25
Airport San Diego International Airport (KSAN)

Arrival

Time 2026-05-07 01:40
Airport Reno Tahoe International Airport (KRNO)
Time Latitude Longitude Altitude Speed Heading
2026-05-06 23:59 32.73418 -117.20332 25 ft 0 kts 263°
2026-05-07 00:09 32.73419 -117.20323 29 ft 4 kts 266°
2026-05-07 00:09 32.73417 -117.20294 25 ft 4 kts 295°
2026-05-07 00:09 32.73403 -117.20277 26 ft 4 kts 355°
2026-05-07 00:09 32.73396 -117.20277 27 ft 1 kts 15°
2026-05-07 00:14 32.73410 -117.20273 27 ft 7 kts 15°
2026-05-07 00:15 32.73495 -117.20245 25 ft 16 kts 15°
2026-05-07 00:15 32.73541 -117.20160 29 ft 15 kts 102°
2026-05-07 00:15 32.73509 -117.20028 25 ft 18 kts 106°
2026-05-07 00:15 32.73472 -117.19875 25 ft 21 kts 106°
2026-05-07 00:16 32.73431 -117.19701 27 ft 23 kts 106°
2026-05-07 00:16 32.73388 -117.19524 27 ft 21 kts 105°
2026-05-07 00:16 32.73346 -117.19348 27 ft 23 kts 106°
2026-05-07 00:16 32.73300 -117.19159 25 ft 25 kts 106°
2026-05-07 00:17 32.73249 -117.18952 26 ft 27 kts 107°
2026-05-07 00:17 32.73194 -117.18727 27 ft 29 kts 106°
2026-05-07 00:17 32.73136 -117.18484 25 ft 32 kts 106°
2026-05-07 00:17 32.73076 -117.18239 24 ft 31 kts 105°
2026-05-07 00:18 32.73017 -117.17997 25 ft 29 kts 106°
2026-05-07 00:18 32.72962 -117.17779 25 ft 23 kts 109°
2026-05-07 00:18 32.72955 -117.17681 27 ft 0 kts 74°
2026-05-07 00:18 32.72956 -117.17676 25 ft 0 kts 74°
2026-05-07 00:23 32.72957 -117.17669 28 ft 3 kts 74°
2026-05-07 00:24 32.72995 -117.17611 25 ft 12 kts 14°
2026-05-07 00:24 32.73038 -117.17653 27 ft 6 kts 289°
2026-05-07 00:24 32.73039 -117.17657 25 ft 0 kts 287°
2026-05-07 00:25 32.73046 -117.17684 27 ft 16 kts 286°
2026-05-07 00:25 32.73170 -117.18200 27 ft 112 kts 286°
2026-05-07 00:25 32.73460 -117.19408 126 ft 181 kts 287°
2026-05-07 00:25 32.73811 -117.20908 1163 ft 192 kts 286°
2026-05-07 00:26 32.74236 -117.22513 2059 ft 220 kts 294°
2026-05-07 00:26 32.75075 -117.24133 3051 ft 227 kts 307°
2026-05-07 00:26 32.76049 -117.25627 4394 ft 236 kts 309°
2026-05-07 00:26 32.77079 -117.27209 5391 ft 250 kts 307°
2026-05-07 00:27 32.78134 -117.28904 6407 ft 261 kts 306°
2026-05-07 00:27 32.79212 -117.30688 7408 ft 273 kts 306°
2026-05-07 00:27 32.80340 -117.32523 8523 ft 277 kts 309°
2026-05-07 00:27 32.81554 -117.34351 9494 ft 286 kts 309°
2026-05-07 00:28 32.82796 -117.36240 10473 ft 295 kts 310°
2026-05-07 00:28 32.84089 -117.38225 11167 ft 313 kts 310°
2026-05-07 00:28 32.85444 -117.40321 11907 ft 326 kts 310°
2026-05-07 00:28 32.86846 -117.42496 12718 ft 334 kts 311°
2026-05-07 00:29 32.88266 -117.44706 13687 ft 338 kts 311°
2026-05-07 00:29 32.89702 -117.46942 14583 ft 342 kts 311°
2026-05-07 00:30 32.94118 -117.53822 17082 ft 355 kts 311°
2026-05-07 00:30 32.95626 -117.56172 17835 ft 360 kts 312°
2026-05-07 00:30 32.97153 -117.58554 18594 ft 363 kts 312°
2026-05-07 00:30 32.98691 -117.60953 19292 ft 367 kts 312°
2026-05-07 00:31 33.00250 -117.63389 19962 ft 371 kts 312°
2026-05-07 00:31 33.01824 -117.65847 20615 ft 375 kts 312°
2026-05-07 00:31 33.03414 -117.68334 21258 ft 379 kts 312°
2026-05-07 00:31 33.05017 -117.70843 21874 ft 383 kts 312°
2026-05-07 00:32 33.06721 -117.73281 22456 ft 381 kts 322°
2026-05-07 00:32 33.08736 -117.75325 23016 ft 383 kts 324°
2026-05-07 00:32 33.10769 -117.77407 23574 ft 387 kts 324°
2026-05-07 00:32 33.12820 -117.79500 24155 ft 390 kts 324°
2026-05-07 00:33 33.14892 -117.81610 24682 ft 393 kts 324°
2026-05-07 00:33 33.16979 -117.83738 25209 ft 396 kts 324°
2026-05-07 00:33 33.19089 -117.85875 25710 ft 399 kts 326°
2026-05-07 00:33 33.21250 -117.87974 26201 ft 402 kts 326°
2026-05-07 00:34 33.23398 -117.90066 26673 ft 405 kts 326°
2026-05-07 00:34 33.25616 -117.92228 27137 ft 408 kts 326°
2026-05-07 00:34 33.27822 -117.94385 27596 ft 411 kts 326°
2026-05-07 00:34 33.30044 -117.96557 28032 ft 414 kts 326°
2026-05-07 00:35 33.32279 -117.98744 28454 ft 417 kts 326°
2026-05-07 00:35 33.34526 -118.00945 28865 ft 419 kts 326°
2026-05-07 00:35 33.36790 -118.03164 29267 ft 422 kts 326°
2026-05-07 00:35 33.39036 -118.05366 29678 ft 424 kts 326°
2026-05-07 00:36 33.41323 -118.07610 30044 ft 427 kts 326°
2026-05-07 00:36 33.43630 -118.09876 30416 ft 430 kts 326°
2026-05-07 00:36 33.45950 -118.12155 30800 ft 432 kts 326°
2026-05-07 00:36 33.48279 -118.14446 31144 ft 435 kts 326°
2026-05-07 00:37 33.50619 -118.16748 31495 ft 437 kts 326°
2026-05-07 00:37 33.52975 -118.19070 31853 ft 440 kts 326°
2026-05-07 00:37 33.55347 -118.21406 32171 ft 442 kts 326°
2026-05-07 00:37 33.57799 -118.23616 32457 ft 438 kts 336°
2026-05-07 00:38 33.60532 -118.25158 32755 ft 436 kts 340°
2026-05-07 00:38 33.63294 -118.26717 33024 ft 440 kts 340°
2026-05-07 00:38 33.66071 -118.28272 33393 ft 440 kts 340°
2026-05-07 00:38 33.68847 -118.29812 33818 ft 440 kts 340°
2026-05-07 00:39 33.71628 -118.31348 34257 ft 438 kts 340°
2026-05-07 00:39 33.74391 -118.32875 34685 ft 437 kts 340°
2026-05-07 00:39 33.77180 -118.34310 35086 ft 435 kts 342°
2026-05-07 00:39 33.79972 -118.35710 35468 ft 435 kts 342°
2026-05-07 00:40 33.82756 -118.37117 35846 ft 434 kts 342°
2026-05-07 00:40 33.85544 -118.38531 36185 ft 434 kts 342°
2026-05-07 00:40 33.88328 -118.39944 36507 ft 434 kts 342°
2026-05-07 00:40 33.91109 -118.41358 36818 ft 434 kts 342°
2026-05-07 00:41 33.93886 -118.42770 37160 ft 433 kts 342°
2026-05-07 00:41 33.96664 -118.44185 37506 ft 432 kts 342°
2026-05-07 00:41 33.99438 -118.45542 37825 ft 428 kts 347°
2026-05-07 00:41 34.02315 -118.46196 38163 ft 418 kts 357°
2026-05-07 00:42 34.05202 -118.46679 38392 ft 419 kts 356°
2026-05-07 00:42 34.08090 -118.47161 38641 ft 418 kts 356°
2026-05-07 00:42 34.10966 -118.47620 38930 ft 417 kts 356°
2026-05-07 00:42 34.13802 -118.48062 39165 ft 416 kts 356°
2026-05-07 00:43 34.16672 -118.48506 39375 ft 416 kts 356°
2026-05-07 00:43 34.19549 -118.48949 39564 ft 417 kts 356°
2026-05-07 00:43 34.22430 -118.49392 39712 ft 418 kts 356°
2026-05-07 00:43 34.25318 -118.49837 39872 ft 418 kts 356°
2026-05-07 00:44 34.28203 -118.50281 40019 ft 419 kts 356°
2026-05-07 00:44 34.31100 -118.50728 40048 ft 420 kts 356°
2026-05-07 00:44 34.36875 -118.51619 40045 ft 418 kts 356°
2026-05-07 00:45 34.42651 -118.52511 40067 ft 418 kts 356°
2026-05-07 00:45 34.48427 -118.53405 40083 ft 418 kts 356°
2026-05-07 00:46 34.54194 -118.54299 40092 ft 418 kts 356°
2026-05-07 00:46 34.59970 -118.55195 40108 ft 419 kts 355°
2026-05-07 00:47 34.65743 -118.56093 40119 ft 418 kts 355°
2026-05-07 00:47 34.71515 -118.56991 40139 ft 418 kts 355°
2026-05-07 00:48 34.77277 -118.57889 40154 ft 417 kts 355°
2026-05-07 00:48 34.83040 -118.58788 40153 ft 417 kts 355°
2026-05-07 00:49 34.88797 -118.59688 40155 ft 417 kts 355°
2026-05-07 00:49 34.94558 -118.60590 40157 ft 417 kts 355°
2026-05-07 00:50 35.00260 -118.61867 40147 ft 421 kts 340°
2026-05-07 00:50 35.02820 -118.63627 40174 ft 427 kts 327°
2026-05-07 00:50 35.05194 -118.65844 40146 ft 430 kts 326°
2026-05-07 00:51 35.09868 -118.70410 40179 ft 431 kts 325°
2026-05-07 00:51 35.14506 -118.75076 40156 ft 431 kts 324°
2026-05-07 00:52 35.19117 -118.79756 40146 ft 431 kts 324°
2026-05-07 00:52 35.23726 -118.84445 40132 ft 431 kts 324°
2026-05-07 00:53 35.28306 -118.89112 40112 ft 431 kts 324°
2026-05-07 00:53 35.32911 -118.93812 40101 ft 431 kts 324°
2026-05-07 00:54 35.37510 -118.98513 40091 ft 430 kts 324°
2026-05-07 00:54 35.42107 -119.03218 40083 ft 430 kts 324°
2026-05-07 00:55 35.46757 -119.07819 40068 ft 426 kts 333°
2026-05-07 00:55 35.49420 -119.09265 40083 ft 415 kts 349°
2026-05-07 00:55 35.52249 -119.09917 40088 ft 415 kts 353°
2026-05-07 00:56 35.57976 -119.10891 40088 ft 416 kts 355°
2026-05-07 00:56 35.63726 -119.11698 40082 ft 415 kts 356°
2026-05-07 00:57 35.69475 -119.12455 40082 ft 415 kts 356°
2026-05-07 00:57 35.75221 -119.13204 40082 ft 415 kts 356°
2026-05-07 00:58 35.80970 -119.13954 40083 ft 415 kts 356°
2026-05-07 00:58 35.86716 -119.14703 40081 ft 415 kts 356°
2026-05-07 00:59 35.95331 -119.15830 40090 ft 415 kts 356°
2026-05-07 01:00 36.01073 -119.16583 40091 ft 415 kts 356°
2026-05-07 01:00 36.06774 -119.17331 40091 ft 414 kts 355°
2026-05-07 01:01 36.12511 -119.18084 40091 ft 414 kts 355°
2026-05-07 01:01 36.18243 -119.18839 40091 ft 414 kts 355°
2026-05-07 01:02 36.23041 -119.19471 40091 ft 414 kts 355°
2026-05-07 01:02 36.28773 -119.20227 40091 ft 414 kts 355°
2026-05-07 01:03 36.34465 -119.20979 40092 ft 414 kts 355°
2026-05-07 01:03 36.40192 -119.21737 40091 ft 414 kts 355°
2026-05-07 01:04 36.45958 -119.22502 40085 ft 414 kts 355°
2026-05-07 01:04 36.51680 -119.23261 40081 ft 414 kts 355°
2026-05-07 01:05 36.57370 -119.24017 40080 ft 414 kts 355°
2026-05-07 01:05 36.63095 -119.24780 40065 ft 414 kts 355°
2026-05-07 01:06 36.68824 -119.25543 40073 ft 414 kts 355°
2026-05-07 01:06 36.74553 -119.26308 40065 ft 414 kts 355°
2026-05-07 01:07 36.80282 -119.27075 40076 ft 414 kts 355°
2026-05-07 01:07 36.86011 -119.27842 40087 ft 414 kts 355°
2026-05-07 01:08 36.91736 -119.28610 40078 ft 414 kts 355°
2026-05-07 01:08 36.97468 -119.29380 40096 ft 415 kts 355°
2026-05-07 01:09 37.03208 -119.30152 40099 ft 415 kts 355°
2026-05-07 01:09 37.08938 -119.30924 40108 ft 414 kts 355°
2026-05-07 01:10 37.14672 -119.31698 40123 ft 414 kts 355°
2026-05-07 01:10 37.20407 -119.32473 40142 ft 414 kts 355°
2026-05-07 01:11 37.26137 -119.33249 40149 ft 414 kts 354°
2026-05-07 01:11 37.31869 -119.34026 40161 ft 415 kts 354°
2026-05-07 01:12 37.37613 -119.34805 40188 ft 415 kts 354°
2026-05-07 01:12 37.43347 -119.35585 40189 ft 415 kts 354°
2026-05-07 01:12 37.46215 -119.35960 39887 ft 414 kts 355°
2026-05-07 01:13 37.49080 -119.36298 39241 ft 413 kts 355°
2026-05-07 01:13 37.51920 -119.36638 38846 ft 406 kts 355°
2026-05-07 01:13 37.54723 -119.36976 38310 ft 403 kts 355°
2026-05-07 01:13 37.57520 -119.37314 37568 ft 406 kts 355°
2026-05-07 01:14 37.60341 -119.37656 36750 ft 410 kts 355°
2026-05-07 01:14 37.63183 -119.38000 36091 ft 410 kts 355°
2026-05-07 01:14 37.66006 -119.38343 35589 ft 406 kts 355°
2026-05-07 01:14 37.68803 -119.38682 35121 ft 402 kts 355°
2026-05-07 01:15 37.71578 -119.39019 34611 ft 399 kts 355°
2026-05-07 01:15 37.74328 -119.39353 34091 ft 397 kts 355°
2026-05-07 01:15 37.77066 -119.39686 33563 ft 394 kts 355°
2026-05-07 01:15 37.79789 -119.40017 33052 ft 392 kts 355°
2026-05-07 01:16 37.82493 -119.40346 32545 ft 389 kts 355°
2026-05-07 01:16 37.85184 -119.40674 32050 ft 387 kts 355°
2026-05-07 01:16 37.87861 -119.41001 31556 ft 385 kts 355°
2026-05-07 01:16 37.90527 -119.41326 31065 ft 384 kts 355°
2026-05-07 01:17 37.93176 -119.41650 30571 ft 382 kts 355°
2026-05-07 01:17 37.95817 -119.41972 30083 ft 380 kts 355°
2026-05-07 01:17 37.98445 -119.42294 29615 ft 378 kts 355°
2026-05-07 01:17 38.01056 -119.42613 29142 ft 376 kts 355°
2026-05-07 01:18 38.03655 -119.42932 28671 ft 374 kts 355°
2026-05-07 01:18 38.06240 -119.43249 28214 ft 372 kts 355°
2026-05-07 01:18 38.08812 -119.43564 27762 ft 370 kts 355°
2026-05-07 01:18 38.11368 -119.43878 27317 ft 368 kts 355°
2026-05-07 01:19 38.13907 -119.44190 26887 ft 366 kts 355°
2026-05-07 01:19 38.16435 -119.44500 26433 ft 364 kts 355°
2026-05-07 01:19 38.18941 -119.44823 26068 ft 360 kts 354°
2026-05-07 01:19 38.21439 -119.45160 25798 ft 362 kts 354°
2026-05-07 01:20 38.23948 -119.45497 25585 ft 362 kts 354°
2026-05-07 01:20 38.26454 -119.45832 25339 ft 361 kts 354°
2026-05-07 01:20 38.28948 -119.46166 25078 ft 360 kts 354°
2026-05-07 01:20 38.31401 -119.46495 24933 ft 350 kts 354°
2026-05-07 01:21 38.33789 -119.46815 24803 ft 340 kts 354°
2026-05-07 01:21 38.36121 -119.47127 24673 ft 339 kts 355°
2026-05-07 01:21 38.38506 -119.47448 24529 ft 349 kts 355°
2026-05-07 01:21 38.40940 -119.47774 24414 ft 354 kts 354°
2026-05-07 01:22 38.43363 -119.48100 24295 ft 355 kts 354°
2026-05-07 01:22 38.45854 -119.48436 24180 ft 355 kts 354°
2026-05-07 01:22 38.48305 -119.48765 24069 ft 355 kts 355°
2026-05-07 01:22 38.50762 -119.49096 23965 ft 354 kts 354°
2026-05-07 01:23 38.53211 -119.49427 23864 ft 354 kts 355°
2026-05-07 01:23 38.55607 -119.49750 23763 ft 353 kts 355°
2026-05-07 01:23 38.58079 -119.50083 23667 ft 353 kts 355°
2026-05-07 01:23 38.60514 -119.50412 23511 ft 352 kts 355°
2026-05-07 01:24 38.62949 -119.50741 23186 ft 350 kts 355°
2026-05-07 01:24 38.65335 -119.51064 22768 ft 349 kts 355°
2026-05-07 01:24 38.67765 -119.51394 22438 ft 344 kts 355°
2026-05-07 01:24 38.70104 -119.51712 22102 ft 343 kts 355°
2026-05-07 01:25 38.72476 -119.52034 21744 ft 342 kts 355°
2026-05-07 01:25 38.74839 -119.52355 21368 ft 340 kts 355°
2026-05-07 01:25 38.77180 -119.52673 21007 ft 338 kts 355°
2026-05-07 01:25 38.79507 -119.52990 20645 ft 335 kts 355°
2026-05-07 01:26 38.81814 -119.53304 20301 ft 332 kts 355°
2026-05-07 01:26 38.84104 -119.53616 19935 ft 330 kts 355°
2026-05-07 01:26 38.86378 -119.53926 19586 ft 329 kts 355°
2026-05-07 01:26 38.88683 -119.54241 19230 ft 329 kts 355°
2026-05-07 01:27 38.90931 -119.54547 18882 ft 328 kts 355°
2026-05-07 01:27 38.93222 -119.54861 18534 ft 326 kts 355°
2026-05-07 01:27 38.95443 -119.55165 18185 ft 323 kts 355°
2026-05-07 01:27 38.97701 -119.55477 17812 ft 321 kts 355°
2026-05-07 01:28 38.99915 -119.55784 17472 ft 318 kts 355°
2026-05-07 01:28 39.01734 -119.56037 17189 ft 318 kts 355°
2026-05-07 01:28 39.02917 -119.56201 17007 ft 319 kts 355°
2026-05-07 01:28 39.04032 -119.56355 16817 ft 320 kts 355°
2026-05-07 01:29 39.06224 -119.56658 16395 ft 321 kts 355°
2026-05-07 01:29 39.08432 -119.56965 16022 ft 318 kts 355°
2026-05-07 01:29 39.10656 -119.57274 15664 ft 316 kts 355°
2026-05-07 01:29 39.12809 -119.57573 15329 ft 314 kts 354°
2026-05-07 01:30 39.14969 -119.57873 14995 ft 311 kts 354°
2026-05-07 01:30 39.17114 -119.58172 14650 ft 309 kts 354°
2026-05-07 01:30 39.19237 -119.58467 14318 ft 306 kts 354°
2026-05-07 01:30 39.21346 -119.58761 13957 ft 304 kts 354°
2026-05-07 01:31 39.23439 -119.59053 13632 ft 301 kts 354°
2026-05-07 01:31 39.25512 -119.59342 13299 ft 299 kts 354°
2026-05-07 01:31 39.27569 -119.59629 12993 ft 296 kts 354°
2026-05-07 01:31 39.29606 -119.59913 12689 ft 293 kts 354°
2026-05-07 01:32 39.31638 -119.60198 12366 ft 295 kts 354°
2026-05-07 01:32 39.33683 -119.60483 12006 ft 295 kts 354°
2026-05-07 01:32 39.35710 -119.60767 11699 ft 292 kts 353°
2026-05-07 01:32 39.37720 -119.61048 11400 ft 289 kts 353°
2026-05-07 01:33 39.39709 -119.61326 11093 ft 286 kts 353°
2026-05-07 01:33 39.41681 -119.61602 10775 ft 285 kts 353°
2026-05-07 01:33 39.43646 -119.61878 10469 ft 283 kts 353°
2026-05-07 01:33 39.45598 -119.62153 10156 ft 281 kts 353°
2026-05-07 01:34 39.47509 -119.62424 10051 ft 269 kts 352°
2026-05-07 01:34 39.49306 -119.62757 9830 ft 255 kts 351°
2026-05-07 01:34 39.51051 -119.63090 9361 ft 253 kts 351°
2026-05-07 01:34 39.52770 -119.63416 8926 ft 244 kts 351°
2026-05-07 01:35 39.54416 -119.63725 8588 ft 236 kts 351°
2026-05-07 01:35 39.56014 -119.64024 8317 ft 228 kts 351°
2026-05-07 01:35 39.57558 -119.64368 8033 ft 223 kts 345°
2026-05-07 01:35 39.58980 -119.65093 7759 ft 216 kts 328°
2026-05-07 01:36 39.60112 -119.66289 7571 ft 207 kts 311°
2026-05-07 01:36 39.60862 -119.67817 7292 ft 192 kts 294°
2026-05-07 01:36 39.61211 -119.69398 6999 ft 175 kts 280°
2026-05-07 01:36 39.61251 -119.70939 6800 ft 166 kts 266°
2026-05-07 01:37 39.61026 -119.72395 6711 ft 164 kts 254°
2026-05-07 01:37 39.60553 -119.73741 6509 ft 166 kts 240°
2026-05-07 01:37 39.59832 -119.74930 6241 ft 170 kts 226°
2026-05-07 01:37 39.58916 -119.75886 6017 ft 168 kts 214°
2026-05-07 01:38 39.57870 -119.76490 5783 ft 164 kts 198°
2026-05-07 01:38 39.56754 -119.76746 5539 ft 157 kts 186°
2026-05-07 01:38 39.55683 -119.76728 5286 ft 159 kts 179°
2026-05-07 01:38 39.54591 -119.76657 5013 ft 155 kts 180°
2026-05-07 01:39 39.53529 -119.76653 4800 ft 151 kts 184°
2026-05-07 01:39 39.52474 -119.76671 4612 ft 153 kts 181°
2026-05-07 01:39 39.51415 -119.76676 4467 ft 150 kts 181°
2026-05-07 01:39 39.50444 -119.76679 4417 ft 116 kts 180°
2026-05-07 01:40 39.49862 -119.76679 4421 ft 55 kts 180°
2026-05-07 01:40 39.49735 -119.76729 4421 ft 14 kts 265°
2026-05-07 01:40 39.49735 -119.76859 4421 ft 15 kts 270°
2026-05-07 01:40 39.49734 -119.77002 4420 ft 17 kts 270°
2026-05-07 01:41 39.49734 -119.77079 4419 ft 6 kts 270°
2026-05-07 01:41 39.49749 -119.77137 4419 ft 8 kts 325°
2026-05-07 01:41 39.49789 -119.77152 4419 ft 12 kts 353°
2026-05-07 01:41 39.49908 -119.77153 4420 ft 24 kts
2026-05-07 01:42 39.50099 -119.77152 4421 ft 29 kts
2026-05-07 01:42 39.50287 -119.77151 4421 ft 17 kts
2026-05-07 01:42 39.50370 -119.77186 4420 ft 10 kts 292°
2026-05-07 01:42 39.50382 -119.77257 4420 ft 6 kts 314°
2026-05-07 01:43 39.50427 -119.77278 4420 ft 4 kts 358°
2026-05-07 01:43 39.50438 -119.77279 4420 ft 0 kts 358°